Regional Weather Roundup
Issued by NWS Jackson, KY

Home | Current Version | Previous Version | Graphics & Text | Print | Product List | Glossary On
Versions: 1 2 3 4 5 6 7 8 9 10 11 12 13 14 15 16 17 18 19 20 21 22 23 24 25 26 27 28 29 30 31 32 33 34 35 36 37 38 39 40 41 42 43 44 45 46 47 48 49 50
000
ASUS43 KJKL 301510
RWRJKL

EAST KENTUCKY HOURLY WEATHER ROUNDUP
NATIONAL WEATHER SERVICE JACKSON KY
1100 AM EDT WED JUL 30 2014

NOTE: "FAIR" INDICATES FEW OR NO CLOUDS BELOW 12,000 FEET WITH
NO SIGNIFICANT WEATHER AND/OR OBSTRUCTIONS TO VISIBILITY.

* THESE REPORTS ARE NOT UNDER NWS QUALITY CONTROL AND MAY NOT
  REPORT WEATHER SUCH AS PRECIPITATION AND FOG.

KYZ079-080-083-085-087-088-110-112-115-119-120-301600
...EASTERN KENTUCKY...

CITY           SKY/WX    TMP DP  RH WIND       PRES   REMARKS
JACKSON        SUNNY     66  57  72 VRB5      30.15R
LONDON         SUNNY     68  56  65 CALM      30.15R
SOMERSET*      SUNNY     68  61  77 CALM      30.14F
MONTICELLO*    SUNNY     73  59  61 CALM      30.15S
WILLIAMSBURG*  SUNNY     68  59  73 CALM      30.15
MIDDLESBORO*   SUNNY     63  56  77 CALM      30.16S
HARLAN APT*    SUNNY     63  55  77 MISG      30.16S
HAZARD APT*    MOSUNNY   68  57  68 SW6       30.15R
BLACK MTN*       N/A     61  54  77 NW2         N/A
PIKEVILLE APT* SUNNY     63  59  88 CALM      30.14S
BIG SANDY*     MOSUNNY   66  57  71 SW5       30.14S
MOREHEAD APT*    N/A     68  59  73 SW8       30.13S
$$

KYZ035-036-041-042-044-050-067-078-099-301600
...CENTRAL KENTUCKY...

CITY           SKY/WX    TMP DP  RH WIND       PRES   REMARKS
MT STERLING*   PTSUNNY   70  61  73 W6        30.13S
FLEMING/MASON* SUNNY     72  61  68 W10       30.11R
DANVILLE*      SUNNY     72  57  60 W5        30.13S
RICHMOND*      SUNNY     70  57  64 W5        30.12S
LEXINGTON      SUNNY     72  59  63 W7        30.12S
FRANKFORT      SUNNY     72  59  63 W6        30.11R
$$

KYZ091>093-OHZ055-061-077-WVZ005-015-034-035-042-301600
...SOUTHERN OHIO/WEST VIRGINIA...

CITY           SKY/WX    TMP DP  RH WIND       PRES   REMARKS
COVINGTON      MOSUNNY   73  60  63 W8        30.09R
COLUMBUS       MOSUNNY   71  59  65 SW6       30.06S
DAYTON         PTSUNNY   71  60  68 SW10      30.07R
WILMINGTON     SUNNY     71  59  65 SW8       30.07S
HUNTINGTON     SUNNY     67  59  75 S7        30.10S
CHARLESTON     MOSUNNY   70  57  63 W10       30.11S
PINEVILLE*     MOSUNNY   67  60  77 MISG      30.20S
BECKLEY        PTSUNNY   65  53  65 MISG      30.16S
BLUEFIELD      SUNNY     65  51  60 W3        30.18S
$$

VAZ002-007-008-TNZ017-027-036-066-071-301600
...SOUTHWEST VIRGINIA/EAST TENNESSEE...

CITY           SKY/WX    TMP DP  RH WIND       PRES   REMARKS
WISE*          PTSUNNY   64  52  63 CALM      30.18S
JONESVILLE*    SUNNY     66  55  68 CALM      30.17S
ABINGDON*      SUNNY     66  54  65 CALM      30.16S
BRISTOL        SUNNY     66  53  63 CALM      30.15F
KNOXVILLE      MOSUNNY   70  57  63 NE9       30.11S
OAK RIDGE      SUNNY     71  55  56 VRB3      30.14S
CROSSVILLE     SUNNY     70  53  54 NE9       30.16S
NASHVILLE      PTSUNNY   74  58  57 CALM      30.13S
$$

...KEY TO REMARKS...
VSB - VISIBILITY IN MILES
WCI - WIND CHILL INDEX
HX  - HEAT INDEX

$$



USA.gov is the U.S. government's official web portal to all federal, state and local government web resources and services.